Location: Windsor
(43.2292°N, 89.3015°W)
Time: 02:55:58
(UTC+00:00)

MOZHAYETS 4 - Pass Details

Date: 06 July 2022
Orbit: 660 x 679 km, 98.2° (Epoch: 13 August)

Event Time Altitude Azimuth Distance (km) Brightness Sun altitude
Exits shadow 07:00:58 - 116° (ESE) 2,603 10.6 -22.7°
Reaches altitude 10° 07:02:38 10° 103° (ESE) 2,106 10.3 -22.6°
Maximum altitude 07:05:35 17° 63° (ENE) 1,676 10.3 -22.5°
Drops below altitude 10° 07:08:33 10° 22° (NNE) 2,108 11.4 -22.3°
Sets 07:11:26 0° 3° (N) 3,023 12.4 -22.2°
